Stündliche Wetter Dabao'anzhen

Heute, 30 Oktober, Freitag

Zeit Temperatur Niederschläge Wind Luftdruck Luftfeuchtigkeit
00:00 +9°C° 0 mm 1 m/S 770 mmHg 40%
01:00 +9°C° 0 mm 1 m/S 770 mmHg 43%
02:00 +8°C° 0 mm 0 m/S 770 mmHg 46%
03:00 +7°C° 0 mm 0 m/S 770 mmHg 48%
04:00 +7°C° 0 mm 0 m/S 770 mmHg 49%
05:00 +6°C° 0 mm 0 m/S 770 mmHg 51%
06:00 +7°C° 0 mm 0 m/S 770 mmHg 48%
07:00 +8°C° 0 mm 0 m/S 770 mmHg 46%
08:00 +9°C° 0 mm 0 m/S 770 mmHg 44%
09:00 +12°C° 0 mm 1 m/S 770 mmHg 40%
10:00 +15°C° 0 mm 1 m/S 770 mmHg 35%
11:00 +17°C° 0 mm 2 m/S 770 mmHg 31%
12:00 +18°C° 0 mm 2 m/S 769 mmHg 27%
13:00 +19°C° 0 mm 3 m/S 768 mmHg 24%
14:00 +19°C° 0 mm 3 m/S 768 mmHg 22%
15:00 +18°C° 0 mm 2 m/S 768 mmHg 23%
16:00 +17°C° 0 mm 2 m/S 767 mmHg 25%
17:00 +15°C° 0 mm 2 m/S 767 mmHg 27%
18:00 +14°C° 0 mm 2 m/S 767 mmHg 31%
19:00 +13°C° 0 mm 2 m/S 767 mmHg 35%
20:00 +12°C° 0 mm 2 m/S 767 mmHg 40%
21:00 +12°C° 0 mm 2 m/S 767 mmHg 44%
22:00 +12°C° 0 mm 1 m/S 767 mmHg 48%
23:00 +11°C° 0 mm 1 m/S 767 mmHg 52%

Morgen, 31 Oktober, Samstag

Zeit Temperatur Niederschläge Wind Luftdruck Luftfeuchtigkeit
00:00 +11°C° 0 mm 1 m/S 766 mmHg 56%
01:00 +11°C° 0 mm 1 m/S 766 mmHg 61%
02:00 +10°C° 0 mm 1 m/S 765 mmHg 65%
03:00 +10°C° 0 mm 1 m/S 765 mmHg 64%
04:00 +11°C° 0 mm 1 m/S 764 mmHg 64%
05:00 +11°C° 0 mm 1 m/S 763 mmHg 63%
06:00 +11°C° 0 mm 1 m/S 763 mmHg 61%
07:00 +12°C° 0 mm 1 m/S 763 mmHg 60%
08:00 +12°C° 0 mm 1 m/S 763 mmHg 58%
09:00 +14°C° 0 mm 2 m/S 763 mmHg 50%
10:00 +16°C° 0 mm 3 m/S 763 mmHg 42%
11:00 +18°C° 0 mm 4 m/S 763 mmHg 34%
12:00 +19°C° 0 mm 5 m/S 762 mmHg 29%
13:00 +19°C° 0 mm 5 m/S 761 mmHg 24%
14:00 +20°C° 0 mm 5 m/S 761 mmHg 19%
15:00 +19°C° 0 mm 5 m/S 761 mmHg 19%
16:00 +18°C° 0 mm 4 m/S 761 mmHg 18%
17:00 +15°C° 0 mm 4 m/S 761 mmHg 17%
18:00 +14°C° 0 mm 3 m/S 762 mmHg 17%
19:00 +13°C° 0 mm 3 m/S 763 mmHg 17%
20:00 +13°C° 0 mm 3 m/S 763 mmHg 16%
21:00 +12°C° 0 mm 3 m/S 763 mmHg 16%
22:00 +12°C° 0 mm 4 m/S 764 mmHg 15%
23:00 +12°C° 0 mm 4 m/S 764 mmHg 14%

übermorgen, 1 November, Sonntag

Zeit Temperatur Niederschläge Wind Luftdruck Luftfeuchtigkeit
00:00 +11°C° 0 mm 4 m/S 764 mmHg 15%
01:00 +10°C° 0 mm 3 m/S 764 mmHg 16%
02:00 +10°C° 0 mm 3 m/S 764 mmHg 17%
03:00 +9°C° 0 mm 3 m/S 764 mmHg 18%
04:00 +8°C° 0 mm 3 m/S 765 mmHg 19%
05:00 +8°C° 0 mm 3 m/S 765 mmHg 21%
06:00 +8°C° 0 mm 2 m/S 766 mmHg 21%
07:00 +9°C° 0 mm 2 m/S 766 mmHg 21%
08:00 +9°C° 0 mm 2 m/S 766 mmHg 22%
09:00 +11°C° 0 mm 3 m/S 766 mmHg 19%
10:00 +13°C° 0 mm 4 m/S 766 mmHg 17%
11:00 +15°C° 0 mm 6 m/S 766 mmHg 14%
12:00 +15°C° 0 mm 5 m/S 765 mmHg 14%
13:00 +16°C° 0 mm 5 m/S 765 mmHg 14%
14:00 +16°C° 0 mm 5 m/S 764 mmHg 13%
15:00 +15°C° 0 mm 4 m/S 764 mmHg 15%
16:00 +14°C° 0 mm 3 m/S 764 mmHg 16%
17:00 +13°C° 0 mm 3 m/S 764 mmHg 17%
18:00 +12°C° 0 mm 3 m/S 765 mmHg 18%
19:00 +11°C° 0 mm 3 m/S 765 mmHg 19%
20:00 +10°C° 0 mm 3 m/S 766 mmHg 20%
21:00 +9°C° 0 mm 2 m/S 766 mmHg 21%
22:00 +8°C° 0 mm 2 m/S 767 mmHg 22%
23:00 +8°C° 0 mm 1 m/S 767 mmHg 23%

2 November, Montag

Zeit Temperatur Niederschläge Wind Luftdruck Luftfeuchtigkeit
00:00 +7°C° 0 mm 2 m/S 767 mmHg 24%
01:00 +7°C° 0 mm 2 m/S 767 mmHg 24%
02:00 +7°C° 0 mm 3 m/S 767 mmHg 24%
03:00 +5°C° 0 mm 3 m/S 768 mmHg 24%
04:00 +5°C° 0 mm 4 m/S 768 mmHg 24%
05:00 +5°C° 0 mm 4 m/S 768 mmHg 23%
06:00 +5°C° 0 mm 3 m/S 769 mmHg 23%
07:00 +5°C° 0 mm 3 m/S 769 mmHg 23%
08:00 +6°C° 0 mm 2 m/S 769 mmHg 23%
09:00 +7°C° 0 mm 4 m/S 769 mmHg 20%
10:00 +8°C° 0 mm 5 m/S 769 mmHg 17%
11:00 +10°C° 0 mm 6 m/S 769 mmHg 14%
12:00 +11°C° 0 mm 6 m/S 768 mmHg 14%
13:00 +13°C° 0 mm 6 m/S 767 mmHg 13%
14:00 +12°C° 0 mm 7 m/S 767 mmHg 12%
15:00 +12°C° 0 mm 5 m/S 767 mmHg 14%
16:00 +11°C° 0 mm 4 m/S 766 mmHg 15%
17:00 +10°C° 0 mm 2 m/S 766 mmHg 16%
18:00 +9°C° 0 mm 2 m/S 767 mmHg 17%
19:00 +7°C° 0 mm 2 m/S 767 mmHg 19%
20:00 +6°C° 0 mm 2 m/S 768 mmHg 20%
21:00 +6°C° 0 mm 2 m/S 768 mmHg 20%
22:00 +6°C° 0 mm 2 m/S 769 mmHg 21%
23:00 +5°C° 0 mm 3 m/S 769 mmHg 22%

3 November, Dienstag

Zeit Temperatur Niederschläge Wind Luftdruck Luftfeuchtigkeit
00:00 +4°C° 0 mm 3 m/S 769 mmHg 23%
01:00 +4°C° 0 mm 2 m/S 770 mmHg 24%
02:00 +3°C° 0 mm 2 m/S 770 mmHg 26%
03:00 +2°C° 0 mm 2 m/S 770 mmHg 25%
04:00 +1°C° 0 mm 2 m/S 771 mmHg 23%
05:00 +1°C° 0 mm 2 m/S 771 mmHg 22%
06:00 +1°C° 0 mm 2 m/S 771 mmHg 21%
07:00 +2°C° 0 mm 2 m/S 771 mmHg 20%
08:00 +3°C° 0 mm 1 m/S 772 mmHg 18%
09:00 +5°C° 0 mm 2 m/S 771 mmHg 17%
10:00 +7°C° 0 mm 3 m/S 771 mmHg 15%
11:00 +10°C° 0 mm 4 m/S 771 mmHg 13%
12:00 +11°C° 0 mm 4 m/S 770 mmHg 13%
13:00 +11°C° 0 mm 4 m/S 769 mmHg 13%
14:00 +12°C° 0 mm 4 m/S 769 mmHg 13%
15:00 +11°C° 0 mm 3 m/S 768 mmHg 15%
16:00 +9°C° 0 mm 2 m/S 768 mmHg 18%
17:00 +9°C° 0 mm 1 m/S 768 mmHg 20%
18:00 +8°C° 0 mm 1 m/S 768 mmHg 22%
19:00 +7°C° 0 mm 1 m/S 768 mmHg 23%
20:00 +6°C° 0 mm 1 m/S 769 mmHg 24%
21:00 +5°C° 0 mm 0 m/S 769 mmHg 25%
22:00 +5°C° 0 mm 0 m/S 769 mmHg 26%
23:00 +4°C° 0 mm 0 m/S 769 mmHg 26%

4 November, Mittwoch

Zeit Temperatur Niederschläge Wind Luftdruck Luftfeuchtigkeit
00:00 +4°C° 0 mm 0 m/S 768 mmHg 27%
01:00 +3°C° 0 mm 0 m/S 768 mmHg 29%
02:00 +3°C° 0 mm 0 m/S 768 mmHg 30%
03:00 +3°C° 0 mm 0 m/S 767 mmHg 31%
04:00 +2°C° 0 mm 0 m/S 767 mmHg 33%
05:00 +2°C° 0 mm 0 m/S 767 mmHg 34%
06:00 +4°C° 0 mm 1 m/S 767 mmHg 33%
07:00 +5°C° 0 mm 1 m/S 767 mmHg 33%
08:00 +5°C° 0 mm 1 m/S 766 mmHg 32%
09:00 +7°C° 0 mm 1 m/S 766 mmHg 29%
10:00 +10°C° 0 mm 1 m/S 765 mmHg 27%
11:00 +12°C° 0 mm 2 m/S 764 mmHg 25%
12:00 +13°C° 0 mm 2 m/S 764 mmHg 24%
13:00 +14°C° 0 mm 2 m/S 763 mmHg 23%
14:00 +16°C° 0 mm 2 m/S 762 mmHg 21%
15:00 +14°C° 0 mm 2 m/S 762 mmHg 24%
16:00 +13°C° 0 mm 2 m/S 762 mmHg 27%
17:00 +12°C° 0 mm 1 m/S 761 mmHg 29%
18:00 +11°C° 0 mm 1 m/S 762 mmHg 31%
19:00 +10°C° 0 mm 1 m/S 762 mmHg 32%
20:00 +9°C° 0 mm 1 m/S 762 mmHg 34%
21:00 +8°C° 0 mm 1 m/S 762 mmHg 35%
22:00 +8°C° 0 mm 1 m/S 763 mmHg 36%
23:00 +6°C° 0 mm 0 m/S 763 mmHg 37%
Mehr zeigen

Wir brauchen deine Erlaubnis

Meteoprog und unser Service Anbieter werden persönliche Daten aufbewahren, so wie Cookies, Geräte Bezeichnung oder ähnliche Technologien von deinem Gerät und Prozess, so wie Persönliche Daten Inhalte und Werbungen, genauso wie social Media und den Verkehr zu analysieren.

  • Aufbewahrung und/oder Zugang zu deiner Geräte Informationen.

    Cookies, Geräte Bezeichnung oder andere Informationen, können aufbewahrt oder Zugang zu deinem Gerät erhalten, für den Grund, der oben angegeben wird.

  • Personalisierte Werbung und Inhalte, Messungen, Einblick in das Publikum und Produkt Entwicklung.

    Werbungen und Inhalte können personalisiert werden, basierend auf ein Profil. Mehr Daten können besser personalisierte Werbungen und Inhalte hinzufügen. Werbung und Inhalte können gezeigt und gemessen werden. Einblicke über das Publikum, welche die Werbung gesehen haben und den Inhalt, können abgeleitet werden. So wie Daten können genutzt werden, um es zu verbessern oder die Benutzer Erfahrung zu verbessern das System und die Software.

Wenn du “Ich stimme zu” klickst, erlaubst du uns, die Cookies zu benutzen die Geräte Bezeichnung, den Web oder ähnliche Technologien zu benutzen. Deine Settings, können in deinem Gerät bei deinem Browser geändert werden.

Für den bestimmten Zweck, berechtigten Interessen beruhen darauf, mehr als auf den Inhalt. Du kannst mehr darüber in unseren Privaten und Cookie Politik lesen.